SCP
0 0 0 0 0 0 0 0 0 0 0 0 0 0 0 0 0 0 0 0 0 0
0 0 0 0 0 0 0 0 0 0 0 0 0 0 0 0 0 0 0 0 0 0
0 0 0 0 0 0 0 0 0 0 0 0 0 0 0 0 0 0 0 0 0 0
0 0 0 0 0 0 0 0 0 0 0 0 0 0 0 0 0 0 0 0 0 0
0 0 0 0 0 0 0 0 0 0 0 0 0 0 0 0 0 0 0 0 0 0
0 0 0 0 0 0 0 0 0 0 0 0 0 0 0 0 0 0 0 0 0 0
0 0 0 0 0 0 0 0 0 0 0 0 0 0 0 0 0 0 0 0 0 0
0 0 0 0 0 0 0 0 0 0 0 0 0 0 0 0 0 0 0 0 0 0
-0 -0 -0 0 0 0 0 0 0 0 0 0 0 0 0 0 0 0 0 0 0 0
-0 -0 0 0 0 0 0 0 0 0 0 0 0 0 0 0 0 0 0 0 0 0
-0 -0 -0 -0 0 0 0 -0 -0 -0 0 0 0 0 0 0 0 0 0 0 0 0
-0 -0 -0 -0 -0 -0 0 -0 -0 0 -0 0 0 -0 -0 -0 -0 0 0 0 0 0
0 0 0 -0 -0 -0 0 -0 -0 0 0 -0 -0 -0 0 -0 -0 0 0 0 0 0
-0 -0 0 -0 -0 -0 -0 -0 -0 -0 -0 -0 -0 -0 -0 0 0 0 0 0 0 0
Wind_Speed_500mb
22 29 34 40 45 40 44 44 42 43 42 33 29 29 35 39 40 45 47 53 61 44
16 23 28 35 41 44 44 39 40 36 47 38 39 41 34 29 47 44 43 47 40 45
15 17 21 29 37 42 41 44 37 45 36 32 34 30 26 29 19 24 23 29 32 40
13 13 14 19 27 36 37 38 41 39 37 30 27 30 32 21 23 25 27 19 29 27
14 11 10 12 15 21 27 30 33 29 30 25 24 24 15 17 17 14 13 9 9 3
12 10 7 5 6 9 14 18 19 21 18 16 19 16 15 15 14 16 6 6 11 12
13 12 11 6 3 7 13 20 24 24 23 17 19 18 13 13 15 14 21 20 17 16
13 13 10 10 10 12 15 19 21 20 16 19 16 18 19 18 20 22 16 13 10 9
13 14 13 10 13 14 14 13 16 16 16 14 17 20 18 14 15 14 9 6 7 8
10 13 13 14 14 9 13 14 15 16 15 15 16 18 13 9 11 7 11 11 10 12
8 8 7 10 9 9 12 14 12 11 9 10 14 15 12 8 10 11 12 16 16 16
6 5 4 7 4 2 6 9 12 10 8 6 10 14 17 14 13 12 12 15 17 15
5 5 9 12 12 11 12 9 7 9 9 10 13 15 16 14 11 10 12 17 19 18
2 5 7 11 12 12 12 11 8 9 11 15 13 15 15 17 15 12 13 16 17 17
Wind_Direction_500mb
265 255 240 236 236 236 233 238 234 241 247 234 241 252 261 253 253 259 259 262 254 263
307 266 250 240 238 233 230 228 220 230 240 236 251 254 265 270 263 258 271 265 263 259
326 304 273 250 241 238 232 229 229 225 234 237 250 245 248 266 276 254 274 266 268 284
329 311 295 274 249 235 229 228 226 220 219 228 243 238 237 240 253 241 249 273 261 273
351 329 308 270 249 230 218 215 218 221 219 227 229 234 235 247 259 250 240 273 254 255
2 4 355 304 248 199 195 193 184 198 196 210 218 202 231 250 227 204 240 193 186 179
15 30 37 56 101 159 160 169 179 178 184 197 233 225 213 220 202 208 199 218 218 220
32 45 65 82 106 130 150 159 172 182 194 190 180 181 195 181 186 201 217 215 213 216
51 59 59 91 102 127 141 145 154 172 168 180 169 163 168 178 205 212 191 197 220 216
82 67 63 75 90 128 138 145 156 162 182 186 178 191 192 212 230 254 200 194 188 168
96 82 58 73 92 113 132 149 159 159 173 185 192 193 202 208 197 208 183 155 152 152
81 82 113 162 174 126 142 136 132 142 129 142 159 160 153 161 169 162 164 157 143 143
62 91 121 128 139 127 133 133 142 175 147 138 151 148 133 131 141 155 159 156 156 153
101 122 121 119 121 138 128 115 134 165 154 143 155 149 160 155 149 155 163 161 157 154
Wind_Speed_850mb
22 29 34 40 45 40 44 44 42 43 42 33 29 29 35 39 40 45 47 53 61 44
16 23 28 35 41 44 44 39 40 36 47 38 39 41 34 29 47 44 43 47 40 45
15 17 21 29 37 42 41 44 37 45 36 32 34 30 26 29 19 24 23 29 32 40
13 13 14 19 27 36 37 38 41 39 37 30 27 30 32 21 23 25 27 19 29 27
14 11 10 12 15 21 27 30 33 29 30 25 24 24 15 17 17 14 13 9 9 3
12 10 7 5 6 9 14 18 19 21 18 16 19 16 15 15 14 16 6 6 11 12
13 12 11 6 3 7 13 20 24 24 23 17 19 18 13 13 15 14 21 20 17 16
13 13 10 10 10 12 15 19 21 20 16 19 16 18 19 18 20 22 16 13 10 9
13 14 13 10 13 14 14 13 16 16 16 14 17 20 18 14 15 14 9 6 7 8
10 13 13 14 14 9 13 14 15 16 15 15 16 18 13 9 11 7 11 11 10 12
8 8 7 10 9 9 12 14 12 11 9 10 14 15 12 8 10 11 12 16 16 16
6 5 4 7 4 2 6 9 12 10 8 6 10 14 17 14 13 12 12 15 17 15
5 5 9 12 12 11 12 9 7 9 9 10 13 15 16 14 11 10 12 17 19 18
2 5 7 11 12 12 12 11 8 9 11 15 13 15 15 17 15 12 13 16 17 17
Wind_Direction_850mb
265 255 240 236 236 236 233 238 234 241 247 234 241 252 261 253 253 259 259 262 254 263
307 266 250 240 238 233 230 228 220 230 240 236 251 254 265 270 263 258 271 265 263 259
326 304 273 250 241 238 232 229 229 225 234 237 250 245 248 266 276 254 274 266 268 284
329 311 295 274 249 235 229 228 226 220 219 228 243 238 237 240 253 241 249 273 261 273
351 329 308 270 249 230 218 215 218 221 219 227 229 234 235 247 259 250 240 273 254 255
2 4 355 304 248 199 195 193 184 198 196 210 218 202 231 250 227 204 240 193 186 179
15 30 37 56 101 159 160 169 179 178 184 197 233 225 213 220 202 208 199 218 218 220
32 45 65 82 106 130 150 159 172 182 194 190 180 181 195 181 186 201 217 215 213 216
51 59 59 91 102 127 141 145 154 172 168 180 169 163 168 178 205 212 191 197 220 216
82 67 63 75 90 128 138 145 156 162 182 186 178 191 192 212 230 254 200 194 188 168
96 82 58 73 92 113 132 149 159 159 173 185 192 193 202 208 197 208 183 155 152 152
81 82 113 162 174 126 142 136 132 142 129 142 159 160 153 161 169 162 164 157 143 143
62 91 121 128 139 127 133 133 142 175 147 138 151 148 133 131 141 155 159 156 156 153
101 122 121 119 121 138 128 115 134 165 154 143 155 149 160 155 149 155 163 161 157 154